GW0058 Weather Reports


Display with metric or nautical units.
time (UTC)temp
F
wind
direction
speed
MPH
gust
MPH
rain 1hr
in
rain 24hr
in
rain mn
in
humidity
%
barometer
mb
20260510151554 78 46 1.0 8.0 0.00 0.00 0.00 77 1015.0
20260510151048 78 139 3.0 10.0 0.00 0.00 0.00 76 1015.0
20260510150550 78 215 4.0 10.0 0.00 0.00 0.00 78 1014.9
20260510150054 78 146 2.0 9.0 0.00 0.00 0.00 77 1014.7
20260510145551 77 84 4.0 9.0 0.00 0.00 0.00 78 1014.7
20260510145048 78 0 2.0 9.0 0.00 0.00 0.00 79 1014.7
20260510144610 77 160 3.0 8.0 0.00 0.00 0.00 80 1014.6
20260510144046 77 127 2.0 7.0 0.00 0.00 0.00 79 1014.4
20260510143548 77 138 2.0 8.0 0.00 0.00 0.00 78 1014.4
20260510143101 76 155 3.0 8.0 0.00 0.00 0.00 79 1014.5
20260510142549 76 171 1.0 7.0 0.00 0.00 0.00 79 1014.4
20260510142049 76 174 2.0 9.0 0.00 0.00 0.00 81 1014.4
20260510141552 75 148 3.0 9.0 0.00 0.00 0.00 81 1014.3
20260510141050 75 126 2.0 7.0 0.00 0.00 0.00 82 1014.3
20260510140546 74 188 3.0 7.0 0.00 0.00 0.00 82 1014.2
20260510140054 74 201 3.0 7.0 0.00 0.00 0.00 84 1014.0
20260510135547 73 122 2.0 7.0 0.00 0.00 0.00 84 1014.0
20260510135047 73 147 2.0 6.0 0.00 0.00 0.00 84 1013.9
20260510134604 73 214 2.0 7.0 0.00 0.00 0.00 86 1013.8
20260510134049 72 131 2.0 7.0 0.00 0.00 0.00 86 1013.8
20260510133553 72 162 1.0 6.0 0.00 0.00 0.00 86 1013.6
20260510133054 71 150 1.0 5.0 0.00 0.00 0.00 87 1013.6
20260510132550 71 176 2.0 5.0 0.00 0.00 0.00 88 1013.6
20260510132050 70 178 2.0 5.0 0.00 0.00 0.00 88 1013.6
20260510131550 70 136 1.0 3.0 0.00 0.00 0.00 89 1013.6
20260510131050 69 0 0.0 3.0 0.00 0.00 0.00 89 1013.5
20260510130549 69 179 0.0 4.0 0.00 0.00 0.00 90 1013.4
20260510130056 68 161 1.0 4.0 0.00 0.00 0.00 91 1013.4
20260510125547 67 0 0.0 1.0 0.00 0.00 0.00 91 1013.2
20260510125047 67 0 0.0 1.0 0.00 0.00 0.00 91 1013.1
20260510124554 67 0 0.0 0.0 0.00 0.00 0.00 92 1013.0
20260510124048 66 0 0.0 0.0 0.00 0.00 0.00 92 1013.0
20260510123547 65 0 0.0 0.0 0.00 0.00 0.00 93 1013.0
20260510123053 65 0 0.0 0.0 0.00 0.00 0.00 92 1013.1
20260510122550 65 0 0.0 0.0 0.00 0.00 0.00 92 1012.9
20260510122048 65 0 0.0 0.0 0.00 0.00 0.00 92 1012.9
20260510121549 64 0 0.0 0.0 0.00 0.00 0.00 92 1012.9
20260510121051 64 0 0.0 1.0 0.00 0.00 0.00 92 1012.7
20260510120548 64 0 0.0 2.0 0.00 0.00 0.00 92 1012.7
20260510120051 64 0 0.0 2.0 0.00 0.00 0.00 91 1012.7
20260510115549 64 309 0.0 1.0 0.00 0.00 0.00 91 1012.6
20260510115049 64 0 0.0 0.0 0.00 0.00 0.00 91 1012.7
20260510114555 65 0 0.0 0.0 0.00 0.00 0.00 90 1012.7
20260510114050 65 0 0.0 1.0 0.00 0.00 0.00 90 1012.7
20260510113548 65 0 0.0 1.0 0.00 0.00 0.00 90 1012.5
20260510113049 65 0 0.0 1.0 0.00 0.00 0.00 90 1012.4
20260510112547 66 0 0.0 3.0 0.00 0.00 0.00 89 1012.5
20260510112048 66 0 0.0 3.0 0.00 0.00 0.00 89 1012.5
20260510111553 65 246 0.0 1.0 0.00 0.00 0.00 89 1012.5
20260510111047 65 0 0.0 0.0 0.00 0.00 0.00 89 1012.4
20260510110547 66 0 0.0 0.0 0.00 0.00 0.00 88 1012.3
20260510110055 66 0 0.0 1.0 0.00 0.00 0.00 87 1012.3
20260510105547 67 0 0.0 4.0 0.00 0.00 0.00 87 1012.3
20260510105050 67 0 0.0 4.0 0.00 0.00 0.00 87 1012.2
20260510104554 67 227 0.0 3.0 0.00 0.00 0.00 87 1012.1
20260510104049 67 207 1.0 3.0 0.00 0.00 0.00 88 1012.1
20260510103548 67 192 1.0 2.0 0.00 0.00 0.00 87 1012.1
20260510103053 67 192 0.0 2.0 0.00 0.00 0.00 87 1012.1
20260510102550 67 192 0.0 2.0 0.00 0.00 0.00 87 1012.3
20260510102051 67 217 0.0 2.0 0.00 0.00 0.00 87 1012.3
20260510101554 67 0 0.0 4.0 0.00 0.00 0.00 87 1012.3
20260510101050 67 0 1.0 4.0 0.00 0.00 0.00 88 1012.2
20260510100549 67 173 2.0 5.0 0.00 0.00 0.00 89 1012.1
20260510100125 66 175 2.0 5.0 0.00 0.00 0.00 91 1012.2
20260510095546 65 0 0.0 2.0 0.00 0.04 0.00 91 1012.3
20260510095046 66 151 0.0 2.0 0.00 0.04 0.00 90 1012.4
20260510094558 66 161 0.0 1.0 0.00 0.04 0.00 90 1012.4
20260510094051 66 0 0.0 0.0 0.00 0.04 0.00 90 1012.5
20260510093549 66 0 0.0 0.0 0.00 0.04 0.00 90 1012.4
20260510093100 66 0 0.0 1.0 0.00 0.04 0.00 89 1012.4
20260510092548 67 0 0.0 1.0 0.00 0.04 0.00 88 1012.4
20260510092050 68 0 0.0 1.0 0.00 0.04 0.00 87 1012.3
20260510091557 68 0 0.0 2.0 0.00 0.04 0.00 87 1012.3
20260510091049 68 226 0.0 3.0 0.00 0.04 0.00 87 1012.3
20260510090550 68 0 1.0 3.0 0.00 0.04 0.00 88 1012.3
20260510090056 68 219 0.0 2.0 0.00 0.04 0.00 89 1012.4
20260510085546 68 0 0.0 1.0 0.00 0.04 0.00 89 1012.3
20260510085048 68 0 0.0 1.0 0.00 0.04 0.00 90 1012.3
20260510084553 68 0 0.0 2.0 0.00 0.04 0.00 90 1012.2
20260510084051 67 221 0.0 2.0 0.00 0.04 0.00 91 1012.1
20260510083547 67 0 0.0 2.0 0.00 0.04 0.00 92 1012.3
20260510083102 67 0 0.0 2.0 0.00 0.04 0.00 92 1012.2
20260510082549 66 0 0.0 0.0 0.00 0.04 0.00 92 1012.3
20260510082049 67 0 0.0 0.0 0.00 0.04 0.00 91 1012.4
20260510081601 67 0 0.0 0.0 0.00 0.04 0.00 91 1012.6
20260510081049 68 0 0.0 0.0 0.00 0.04 0.00 90 1012.6
20260510080550 68 0 0.0 0.0 0.00 0.04 0.00 90 1012.6
20260510080054 68 0 0.0 1.0 0.00 0.04 0.00 91 1012.5
20260510075610 68 0 0.0 1.0 0.00 0.04 0.00 90 1012.4
20260510075049 68 106 0.0 1.0 0.00 0.04 0.00 90 1012.4
20260510074553 68 0 0.0 0.0 0.00 0.04 0.00 90 1012.5
20260510074050 69 0 0.0 0.0 0.00 0.04 0.00 90 1012.5
20260510073547 68 0 0.0 0.0 0.00 0.04 0.00 90 1012.4
20260510073053 69 0 0.0 0.0 0.00 0.04 0.00 90 1012.5
20260510072547 69 0 0.0 0.0 0.00 0.04 0.00 90 1012.5
20260510072050 69 0 0.0 1.0 0.00 0.04 0.00 90 1012.5
20260510071558 69 0 0.0 1.0 0.00 0.04 0.00 89 1012.4
20260510071049 69 0 0.0 1.0 0.00 0.04 0.00 90 1012.5
20260510070549 69 0 0.0 0.0 0.00 0.04 0.00 90 1012.3
20260510070053 69 0 0.0 0.0 0.00 0.04 0.00 90 1012.3
20260510065549 69 0 0.0 0.0 0.00 0.04 0.00 90 1012.3
20260510065050 69 0 0.0 0.0 0.00 0.04 0.00 90 1012.3
20260510064601 69 0 0.0 1.0 0.00 0.04 0.00 91 1012.2
20260510064049 69 0 0.0 1.0 0.00 0.04 0.00 91 1012.1
20260510063547 68 0 0.0 0.0 0.00 0.04 0.00 91 1012.1
20260510063055 68 0 0.0 0.0 0.00 0.04 0.00 90 1012.2
20260510062549 68 0 0.0 0.0 0.00 0.04 0.00 91 1012.2
20260510062050 68 0 0.0 0.0 0.00 0.04 0.00 90 1012.3
20260510061558 68 0 0.0 0.0 0.00 0.04 0.00 90 1012.4
20260510061050 69 0 0.0 0.0 0.00 0.04 0.00 90 1012.3
20260510060550 69 0 0.0 0.0 0.00 0.04 0.00 89 1012.3
20260510060055 69 0 0.0 0.0 0.00 0.04 0.00 89 1012.4
20260510055549 69 0 0.0 0.0 0.00 0.04 0.00 89 1012.4
20260510055049 70 0 0.0 0.0 0.00 0.04 0.00 88 1012.4
20260510054556 70 0 0.0 0.0 0.00 0.04 0.00 87 1012.3
20260510054049 71 0 0.0 1.0 0.00 0.04 0.00 87 1012.3
20260510053547 71 0 0.0 1.0 0.00 0.04 0.00 88 1012.4
20260510053053 70 0 0.0 1.0 0.00 0.04 0.00 88 1012.3
20260510052547 70 0 0.0 1.0 0.00 0.04 0.00 88 1012.3
20260510052050 70 0 0.0 1.0 0.00 0.04 0.00 88 1012.3
20260510051553 70 0 0.0 1.0 0.00 0.04 0.00 89 1012.3
20260510051048 70 0 0.0 0.0 0.00 0.04 0.00 89 1012.2
20260510050550 69 0 0.0 1.0 0.00 0.04 0.00 90 1012.3
20260510050059 69 0 0.0 1.0 0.00 0.04 0.00 90 1012.2
20260510045547 69 0 0.0 0.0 0.00 0.04 0.04 90 1012.1
20260510045047 69 0 0.0 0.0 0.00 0.04 0.04 89 1012.0
20260510044556 70 0 0.0 0.0 0.00 0.04 0.04 89 1012.0
20260510044051 70 0 0.0 0.0 0.00 0.04 0.04 88 1012.0
20260510043549 70 0 0.0 0.0 0.00 0.04 0.04 88 1012.0
20260510043057 70 0 0.0 0.0 0.00 0.04 0.04 88 1012.0
20260510042555 70 0 0.0 0.0 0.00 0.04 0.04 88 1011.9
20260510042049 70 0 0.0 0.0 0.00 0.04 0.04 88 1011.9
20260510041553 70 0 0.0 0.0 0.00 0.04 0.04 87 1011.9
20260510041048 70 0 0.0 1.0 0.00 0.04 0.04 88 1011.8
20260510040550 70 0 0.0 1.0 0.00 0.04 0.04 87 1011.9
20260510040058 70 0 0.0 1.0 0.00 0.04 0.04 87 1011.8
20260510035548 71 0 0.0 0.0 0.00 0.04 0.04 87 1011.9
20260510035050 71 0 0.0 0.0 0.00 0.04 0.04 86 1011.7
20260510034603 71 0 0.0 0.0 0.00 0.04 0.04 86 1011.8
20260510034050 71 0 0.0 0.0 0.00 0.04 0.04 86 1011.7
20260510033548 72 0 0.0 0.0 0.00 0.04 0.04 85 1011.8
20260510033112 72 0 0.0 0.0 0.00 0.04 0.04 84 1011.7
20260510032549 73 0 0.0 0.0 0.00 0.04 0.04 83 1011.8
20260510032057 73 0 0.0 0.0 0.00 0.04 0.04 82 1011.7
20260510031600 73 0 0.0 0.0 0.00 0.04 0.04 82 1011.5
20260510031049 73 0 0.0 0.0 0.00 0.04 0.04 81 1011.5
20260510030554 74 0 0.0 1.0 0.00 0.04 0.04 80 1011.5
20260510030100 74 0 0.0 1.0 0.00 0.04 0.04 81 1011.3
20260510025547 74 0 0.0 1.0 0.00 0.04 0.04 81 1011.3
20260510025049 73 0 0.0 1.0 0.00 0.04 0.04 81 1011.3
20260510024601 73 0 0.0 0.0 0.00 0.04 0.04 81 1011.2
20260510024047 73 0 0.0 0.0 0.00 0.04 0.04 81 1011.2
20260510023549 73 0 0.0 0.0 0.00 0.04 0.04 79 1011.1
20260510023054 73 0 0.0 0.0 0.00 0.04 0.04 79 1011.1
20260510022547 74 0 0.0 0.0 0.00 0.04 0.04 78 1011.1
20260510022049 74 0 0.0 0.0 0.00 0.04 0.04 77 1011.0
20260510021555 75 0 0.0 0.0 0.00 0.04 0.04 76 1010.9
20260510021049 75 0 0.0 0.0 0.00 0.04 0.04 75 1010.8
20260510020550 76 0 0.0 1.0 0.00 0.04 0.04 74 1010.8
20260510020053 77 0 0.0 1.0 0.00 0.04 0.04 73 1010.8
20260510015547 77 0 0.0 1.0 0.00 0.04 0.04 72 1010.7
20260510015048 77 0 0.0 1.0 0.00 0.04 0.04 72 1010.6
20260510014557 78 0 0.0 1.0 0.00 0.04 0.04 70 1010.5
20260510014049 78 0 0.0 3.0 0.00 0.04 0.04 70 1010.5
20260510013551 78 0 0.0 3.0 0.00 0.04 0.04 69 1010.4
20260510013054 79 0 0.0 3.0 0.00 0.04 0.04 69 1010.3
20260510012548 79 0 0.0 4.0 0.00 0.04 0.04 68 1010.3
20260510012141 79 0 0.0 4.0 0.00 0.04 0.04 68 1010.3
20260510012047 79 0 0.0 4.0 0.00 0.04 0.04 68 1010.3
20260510011556 80 117 1.0 4.0 0.00 0.04 0.04 67 1010.2
20260510011050 80 0 0.0 3.0 0.00 0.04 0.04 66 1010.2
20260510010551 81 76 1.0 4.0 0.00 0.04 0.04 65 1010.2
20260510010054 81 136 1.0 7.0 0.00 0.04 0.04 63 1010.1
20260510005548 81 109 1.0 7.0 0.00 0.04 0.04 61 1010.0
20260510005047 82 138 1.0 7.0 0.00 0.04 0.04 59 1009.9
20260510004555 82 149 1.0 4.0 0.00 0.04 0.04 55 1009.9
20260510004050 82 147 1.0 4.0 0.00 0.04 0.04 53 1009.8
20260510003548 83 88 2.0 4.0 0.00 0.04 0.04 51 1009.8
20260510003110 83 0 0.0 3.0 0.00 0.04 0.04 49 1009.7
20260510002549 84 69 0.0 3.0 0.00 0.04 0.04 48 1009.7
20260510002049 84 52 0.0 3.0 0.00 0.04 0.04 47 1009.6
20260510001552 84 0 0.0 2.0 0.00 0.04 0.04 46 1009.6
20260510001047 85 159 0.0 2.0 0.00 0.04 0.04 47 1009.5
20260510000553 85 0 0.0 4.0 0.00 0.04 0.04 47 1009.5
20260510000055 85 0 1.0 4.0 0.00 0.04 0.04 46 1009.4
20260509235549 85 86 0.0 4.0 0.00 0.04 0.04 46 1009.5
20260509235047 85 160 0.0 5.0 0.00 0.04 0.04 45 1009.5
20260509234604 85 0 1.0 5.0 0.00 0.04 0.04 44 1009.4
20260509234049 86 0 0.0 4.0 0.00 0.04 0.04 47 1009.4
20260509233550 86 173 1.0 4.0 0.00 0.04 0.04 45 1009.3
20260509233053 86 48 1.0 6.0 0.00 0.04 0.04 46 1009.3
20260509232547 86 98 1.0 6.0 0.00 0.04 0.04 47 1009.3
20260509232048 87 104 1.0 5.0 0.00 0.04 0.04 46 1009.3
20260509231556 86 35 1.0 7.0 0.00 0.04 0.04 47 1009.3
20260509231049 86 133 2.0 7.0 0.00 0.04 0.04 46 1009.2
20260509230549 87 162 3.0 7.0 0.00 0.04 0.04 46 1009.1
20260509230103 87 50 2.0 7.0 0.00 0.04 0.04 48 1009.1
20260509225550 86 154 3.0 7.0 0.00 0.04 0.04 47 1009.1
20260509225051 86 34 2.0 7.0 0.00 0.04 0.04 48 1009.1
20260509224553 86 133 2.0 7.0 0.00 0.04 0.04 49 1009.2
20260509224050 86 174 2.0 10.0 0.00 0.04 0.04 51 1009.2
20260509223550 86 146 5.0 10.0 0.00 0.04 0.04 52 1009.2
20260509223055 86 183 5.0 10.0 0.00 0.04 0.04 57 1009.2
20260509222546 86 137 3.0 11.0 0.00 0.04 0.04 57 1009.2
20260509222050 86 147 5.0 11.0 0.00 0.04 0.04 54 1009.2
20260509221554 86 149 3.0 10.0 0.00 0.04 0.04 54 1009.2
20260509221050 86 175 3.0 9.0 0.00 0.04 0.04 53 1009.2
20260509220549 86 185 3.0 7.0 0.00 0.04 0.04 53 1009.1
20260509220055 86 346 2.0 7.0 0.00 0.04 0.04 54 1008.9
20260509215553 85 149 2.0 8.0 0.00 0.04 0.04 55 1009.0
20260509215049 84 216 3.0 8.0 0.00 0.04 0.04 56 1009.0
20260509214554 82 0 1.0 7.0 0.00 0.04 0.04 59 1009.2
20260509214049 82 94 2.0 8.0 0.00 0.04 0.04 57 1009.4
20260509213546 82 57 3.0 15.0 0.00 0.04 0.04 56 1009.4
20260509213101 83 96 2.0 15.0 0.00 0.04 0.04 54 1009.5
20260509212549 87 54 4.0 14.0 0.00 0.04 0.04 50 1009.6
20260509212049 88 0 0.0 4.0 0.00 0.04 0.04 51 1009.4
20260509211556 88 200 0.0 8.0 0.00 0.04 0.04 46 1009.4
20260509211049 89 338 1.0 8.0 0.00 0.04 0.04 45 1009.3
20260509210548 90 294 1.0 6.0 0.00 0.04 0.04 44 1009.4
20260509210058 91 250 3.0 6.0 0.00 0.04 0.04 45 1009.4
20260509205549 90 216 1.0 6.0 0.00 0.04 0.04 46 1009.4
20260509205049 90 175 3.0 7.0 0.00 0.04 0.04 44 1009.5
20260509204555 90 242 3.0 7.0 0.00 0.04 0.04 42 1009.6
20260509204049 89 173 0.0 3.0 0.00 0.04 0.04 48 1009.7
20260509203548 87 0 1.0 6.0 0.00 0.04 0.04 52 1009.8
20260509203052 88 0 2.0 7.0 0.00 0.04 0.04 49 1009.8
20260509202548 88 279 2.0 7.0 0.00 0.04 0.04 47 1010.0
20260509202048 89 215 2.0 10.0 0.00 0.04 0.04 49 1009.9
20260509201553 89 219 1.0 10.0 0.00 0.04 0.04 46 1010.0
20260509201052 89 275 3.0 10.0 0.00 0.04 0.04 48 1010.1
20260509200551 88 303 1.0 8.0 0.00 0.04 0.04 54 1010.1
20260509200057 86 240 3.0 8.0 0.00 0.04 0.04 54 1010.4
20260509195549 88 132 2.0 8.0 0.00 0.04 0.04 49 1010.4
20260509195050 89 188 2.0 8.0 0.00 0.04 0.04 51 1010.5
20260509194553 88 250 2.0 9.0 0.00 0.04 0.04 56 1010.6
20260509194050 86 0 1.0 9.0 0.00 0.04 0.04 55 1010.5
20260509193550 86 333 1.0 6.0 0.00 0.04 0.04 57 1010.7
20260509193051 86 0 1.0 6.0 0.00 0.04 0.04 57 1010.7
20260509192548 86 258 2.0 6.0 0.00 0.04 0.04 59 1010.8
20260509192049 88 167 2.0 6.0 0.00 0.04 0.04 56 1010.8
20260509191553 86 210 3.0 6.0 0.00 0.04 0.04 58 1010.8
20260509191052 86 184 3.0 6.0 0.00 0.04 0.04 60 1010.8
20260509190554 87 318 2.0 7.0 0.00 0.04 0.04 57 1011.0
20260509190055 86 193 1.0 9.0 0.00 0.04 0.04 62 1011.3
20260509185550 85 273 2.0 9.0 0.00 0.04 0.04 62 1011.4
20260509185050 87 238 2.0 8.0 0.00 0.04 0.04 61 1011.5
20260509184552 86 296 2.0 5.0 0.00 0.04 0.04 65 1011.6
20260509184049 85 260 2.0 7.0 0.00 0.04 0.04 65 1011.6
20260509183554 84 0 0.0 7.0 0.00 0.04 0.04 61 1011.7
20260509183133 86 263 2.0 7.0 0.00 0.04 0.04 61 1011.7
20260509182549 85 274 2.0 5.0 0.00 0.04 0.04 62 1011.7
20260509182052 84 0 0.0 7.0 0.00 0.04 0.04 66 1011.7
20260509181607 84 132 2.0 7.0 0.00 0.04 0.04 65 1011.8
20260509181048 84 103 2.0 7.0 0.00 0.04 0.04 63 1011.8
20260509180546 85 188 2.0 7.0 0.00 0.04 0.04 65 1011.9
20260509180058 85 155 2.0 7.0 0.00 0.04 0.04 66 1012.0
20260509175548 84 281 2.0 7.0 0.00 0.04 0.04 66 1011.9
20260509175050 84 201 2.0 6.0 0.00 0.04 0.04 68 1011.9
20260509174557 84 194 1.0 8.0 0.00 0.04 0.04 67 1012.0
20260509174050 84 221 3.0 8.0 0.00 0.04 0.04 66 1012.1
20260509173552 84 179 3.0 9.0 0.00 0.04 0.04 73 1012.2
20260509173102 83 320 1.0 9.0 0.00 0.04 0.04 69 1012.1
20260509172548 83 248 3.0 7.0 0.00 0.04 0.04 75 1012.2
20260509172051 82 197 3.0 6.0 0.00 0.04 0.04 73 1012.3
20260509171558 81 227 2.0 7.0 0.00 0.04 0.04 74 1012.3
20260509171050 81 150 2.0 7.0 0.00 0.04 0.04 72 1012.3
20260509170549 81 215 2.0 6.0 0.00 0.04 0.04 75 1012.5
20260509170056 81 146 3.0 7.0 0.00 0.04 0.04 77 1012.4
20260509165550 81 229 2.0 7.0 0.00 0.04 0.04 77 1012.4
20260509165050 79 198 2.0 6.0 0.00 0.04 0.04 78 1012.5
20260509164600 79 297 3.0 6.0 0.00 0.04 0.04 80 1012.5
20260509164052 80 236 2.0 7.0 0.00 0.04 0.04 82 1012.5
20260509163548 80 277 3.0 10.0 0.00 0.04 0.04 79 1012.5
20260509163100 79 157 4.0 10.0 0.00 0.04 0.04 80 1012.6
20260509162548 78 262 3.0 8.0 0.00 0.04 0.04 83 1012.5
20260509162048 78 224 4.0 8.0 0.00 0.04 0.04 80 1012.5
20260509161552 79 175 3.0 8.0 0.00 0.04 0.04 84 1012.4
20260509161048 78 234 2.0 9.0 0.00 0.04 0.04 84 1012.5
20260509160550 78 253 2.0 9.0 0.00 0.04 0.04 83 1012.7
20260509160057 78 225 3.0 7.0 0.00 0.04 0.04 86 1012.5
20260509155550 78 199 2.0 5.0 0.00 0.04 0.04 85 1012.5
20260509155049 77 0 1.0 3.0 0.00 0.04 0.04 89 1012.9
20260509154558 76 296 1.0 5.0 0.00 0.04 0.04 89 1012.9
20260509154050 75 0 1.0 5.0 0.00 0.04 0.04 91 1012.8
20260509153548 74 225 2.0 5.0 0.00 0.04 0.04 91 1012.8
20260509153053 75 0 1.0 5.0 0.00 0.04 0.04 92 1012.9
20260509152551 75 232 2.0 5.0 0.00 0.04 0.04 93 1012.9
20260509152050 74 150 1.0 6.0 0.00 0.04 0.04 95 1012.8